FW9167 Weather Reports


Display with metric or nautical units.
time (UTC)temp
F
wind
direction
speed
MPH
gust
MPH
rain 1hr
in
rain 24hr
in
rain mn
in
humidity
%
barometer
mb
20260507194602 72 214 8.0 15.0 0.00 0.00 0.00 32 1015.9
20260507193102 72 129 7.0 7.0 0.00 0.00 0.00 39 1015.8
20260507191602 71 108 3.0 6.0 0.00 0.00 0.00 35 1016.0
20260507184602 69 146 2.0 7.0 0.00 0.00 0.00 39 1016.2
20260507183102 69 115 3.0 6.0 0.00 0.00 0.00 39 1016.3
20260507181602 68 52 5.0 6.0 0.00 0.00 0.00 40 1016.5
20260507180104 67 131 2.0 6.0 0.00 0.00 0.00 42 1016.4
20260507173102 67 39 0.0 5.0 0.00 0.00 0.00 44 1016.6
20260507164602 65 36 1.0 4.0 0.00 0.00 0.00 42 1016.9
20260507163105 64 121 0.0 1.0 0.00 0.00 0.00 44 1016.9
20260507161602 64 242 0.0 2.0 0.00 0.00 0.00 46 1017.0
20260507154602 62 203 0.0 2.0 0.00 0.00 0.00 49 1017.1
20260507153102 61 250 3.0 3.0 0.00 0.00 0.00 55 1017.2
20260507144601 57 143 0.0 1.0 0.00 0.00 0.00 59 1016.9
20260507143101 56 110 0.0 1.0 0.00 0.00 0.00 60 1016.8
20260507141601 55 38 0.0 0.0 0.00 0.00 0.00 65 1016.8
20260507134602 51 345 0.0 2.0 0.00 0.00 0.00 68 1016.4
20260507133102 47 330 0.0 2.0 0.00 0.00 0.00 72 1016.0
20260507131601 47 330 0.0 2.0 0.00 0.00 0.00 72 1016.0
20260507124602 47 340 0.0 4.0 0.00 0.00 0.00 69 1016.1
20260507123102 48 347 1.0 3.0 0.00 0.00 0.00 64 1016.0
20260507121605 48 26 2.0 3.0 0.00 0.00 0.00 64 1016.0
20260507114602 48 331 1.0 4.0 0.00 0.00 0.00 63 1015.8
20260507113101 49 33 0.0 3.0 0.00 0.00 0.00 60 1015.8
20260507111601 49 330 2.0 5.0 0.00 0.00 0.00 61 1015.8
20260507104606 50 338 2.0 3.0 0.00 0.00 0.00 59 1015.6
20260507103101 48 18 1.0 5.0 0.00 0.00 0.00 67 1015.6
20260507101602 48 355 2.0 5.0 0.00 0.00 0.00 68 1015.5
20260507094602 48 340 0.0 2.0 0.00 0.00 0.00 74 1015.4
20260507093102 50 8 0.0 2.0 0.00 0.00 0.00 70 1015.3
20260507091602 54 335 0.0 3.0 0.00 0.00 0.00 64 1015.4
20260507084602 54 236 1.0 3.0 0.00 0.00 0.00 64 1015.4
20260507083102 54 22 0.0 3.0 0.00 0.00 0.00 67 1015.3
20260507081601 53 350 1.0 4.0 0.00 0.00 0.00 68 1015.4
20260507074603 57 257 1.0 2.0 0.00 0.00 0.00 60 1015.4
20260507073103 57 100 0.0 1.0 0.00 0.00 0.00 57 1015.5
20260507071603 56 334 0.0 2.0 0.00 0.00 0.00 56 1015.4
20260507064606 58 26 0.0 1.0 0.00 0.00 0.00 52 1015.4
20260507063106 61 341 1.0 3.0 0.00 0.00 0.00 44 1015.3
20260507061604 59 333 2.0 2.0 0.00 0.00 0.00 47 1015.2
20260507060105 60 338 4.0 5.0 0.00 0.00 0.00 46 1015.4
20260507054604 60 308 1.0 4.0 0.00 0.00 0.00 50 1015.5
20260507053106 62 347 1.0 3.0 0.00 0.00 0.00 43 1015.6
20260507051604 63 348 0.0 4.0 0.00 0.00 0.00 42 1015.7
20260507050105 62 30 1.0 3.0 0.00 0.00 0.00 47 1015.8
20260507044605 62 64 2.0 5.0 0.00 0.00 0.00 52 1015.8
20260507041606 59 342 2.0 4.0 0.00 0.00 0.00 66 1015.5
20260507040106 61 332 1.0 3.0 0.00 0.00 0.00 64 1015.4
20260507034606 61 341 0.0 3.0 0.00 0.00 0.00 63 1015.3
20260507033104 62 319 0.0 4.0 0.00 0.00 0.00 64 1015.2
20260507031604 64 311 2.0 5.0 0.00 0.00 0.00 58 1015.2
20260507030105 63 330 1.0 6.0 0.00 0.00 0.00 63 1015.2
20260507024603 65 314 0.0 3.0 0.00 0.00 0.00 61 1015.1
20260507023102 67 289 2.0 3.0 0.00 0.00 0.00 56 1015.1
20260507021602 69 301 0.0 5.0 0.00 0.00 0.00 51 1014.9
20260507020105 72 25 0.0 1.0 0.00 0.00 0.00 47 1014.9
20260507014602 72 25 0.0 1.0 0.00 0.00 0.00 44 1014.9
20260507013103 73 89 0.0 2.0 0.00 0.00 0.00 44 1014.9
20260507011604 72 345 0.0 1.0 0.00 0.00 0.00 49 1015.0
20260507010104 72 19 0.0 2.0 0.00 0.00 0.00 48 1015.0
20260507004602 72 25 0.0 1.0 0.00 0.00 0.00 49 1015.0
20260507003102 73 46 3.0 3.0 0.00 0.00 0.00 42 1015.2
20260507001602 75 125 0.0 3.0 0.00 0.00 0.00 39 1015.1
20260506234603 75 150 0.0 2.0 0.00 0.00 0.00 42 1015.2
20260506233101 76 134 0.0 6.0 0.00 0.00 0.00 38 1015.2
20260506231602 77 122 0.0 4.0 0.00 0.00 0.00 35 1015.3
20260506224604 76 136 1.0 5.0 0.00 0.00 0.00 35 1015.7
20260506223102 75 139 1.0 6.0 0.00 0.00 0.00 36 1016.0
20260506221601 74 35 4.0 7.0 0.00 0.00 0.00 36 1016.3
20260506220105 75 110 0.0 5.0 0.00 0.00 0.00 36 1016.6
20260506214603 74 163 2.0 5.0 0.00 0.00 0.00 37 1016.8
20260506213106 73 56 2.0 5.0 0.00 0.00 0.00 36 1017.2
20260506211602 73 130 4.0 5.0 0.00 0.00 0.00 38 1017.3
20260506210104 73 115 0.0 6.0 0.00 0.00 0.00 37 1017.6
20260506204602 72 146 0.0 5.0 0.00 0.00 0.00 38 1017.7
20260506203102 70 195 1.0 3.0 0.00 0.00 0.00 41 1017.9
20260506201605 69 281 2.0 5.0 0.00 0.00 0.00 39 1018.1